TimeCST,TemperatureF,Dew PointF,Humidity,Sea Level PressureIn,VisibilityMPH,Wind Direction,Wind SpeedMPH,Gust SpeedMPH,PrecipitationIn,Events,Conditions,WindDirDegrees,DateUTC
12:52 AM,12.0,1.9,64,30.15,10.0,North,13.8,-,N/A,,Clear,360,2014-01-31 06:52:00
1:52 AM,10.0,-0.0,64,30.16,10.0,North,11.5,-,N/A,,Clear,360,2014-01-31 07:52:00
2:52 AM,10.0,-0.9,61,30.16,10.0,NNE,8.1,-,N/A,,Clear,20,2014-01-31 08:52:00
3:52 AM,9.0,-2.0,61,30.17,10.0,NNE,6.9,-,N/A,,Clear,20,2014-01-31 09:52:00
4:52 AM,9.0,-2.0,61,30.16,10.0,NNE,5.8,-,N/A,,Clear,30,2014-01-31 10:52:00
5:52 AM,9.0,-2.0,61,30.20,10.0,Calm,Calm,-,N/A,,Clear,0,2014-01-31 11:52:00
6:52 AM,8.1,-2.0,64,30.20,10.0,Calm,Calm,-,N/A,,Clear,0,2014-01-31 12:52:00
7:52 AM,8.1,-2.0,64,30.22,10.0,Calm,Calm,-,N/A,,Clear,0,2014-01-31 13:52:00
8:52 AM,10.0,-0.9,61,30.23,10.0,Calm,Calm,-,N/A,,Partly Cloudy,0,2014-01-31 14:52:00
9:52 AM,10.9,-0.9,59,30.22,10.0,South,5.8,-,N/A,,Mostly Cloudy,180,2014-01-31 15:52:00
10:52 AM,14.0,-0.0,54,30.24,10.0,SSE,4.6,-,N/A,,Clear,150,2014-01-31 16:52:00
11:52 AM,16.0,1.9,54,30.22,10.0,South,6.9,-,N/A,,Clear,180,2014-01-31 17:52:00
12:52 PM,19.0,1.9,47,30.15,10.0,SSE,9.2,-,N/A,,Clear,160,2014-01-31 18:52:00
1:52 PM,21.0,3.0,46,30.12,10.0,North,-9999.0,-,N/A,,Clear,0,2014-01-31 19:52:00
2:52 PM,24.1,3.9,42,30.08,10.0,Variable,3.5,-,N/A,,Mostly Cloudy,0,2014-01-31 20:52:00
3:52 PM,23.0,3.0,42,30.08,10.0,SSE,4.6,-,N/A,,Clear,150,2014-01-31 21:52:00
4:52 PM,23.0,3.0,42,30.06,10.0,SSE,8.1,-,N/A,,Clear,150,2014-01-31 22:52:00
5:52 PM,19.9,1.9,46,30.05,10.0,SSE,6.9,-,N/A,,Clear,160,2014-01-31 23:52:00
6:52 PM,19.0,3.0,50,30.05,10.0,SSE,3.5,-,N/A,,Clear,150,2014-02-01 00:52:00
7:52 PM,18.0,3.0,52,30.05,10.0,SSE,3.5,-,N/A,,Mostly Cloudy,150,2014-02-01 01:52:00
8:52 PM,19.0,3.0,50,30.05,10.0,ESE,3.5,-,N/A,,Overcast,110,2014-02-01 02:52:00
9:52 PM,21.0,5.0,50,30.06,10.0,South,4.6,-,N/A,,Overcast,170,2014-02-01 03:52:00
10:52 PM,21.9,6.1,51,30.01,10.0,SSE,5.8,-,N/A,,Overcast,160,2014-02-01 04:52:00
11:52 PM,23.0,5.0,46,30.02,10.0,South,10.4,-,N/A,,Overcast,180,2014-02-01 05:52:00